TimeMDT,TemperatureF,Dew PointF,Humidity,Sea Level PressureIn,VisibilityMPH,Wind Direction,Wind SpeedMPH,Gust SpeedMPH,PrecipitationIn,Events,Conditions,WindDirDegrees,DateUTC
12:15 AM,47.1,41.2,80,30.48,10.0,Calm,Calm,-,N/A,,Clear,0,2013-08-16 06:15:00
12:35 AM,46.8,41.0,80,30.48,10.0,South,4.6,-,N/A,,Clear,180,2013-08-16 06:35:00
12:55 AM,46.2,41.7,84,30.47,10.0,Calm,Calm,-,N/A,,Clear,0,2013-08-16 06:55:00
1:15 AM,47.3,41.7,81,30.47,10.0,Calm,Calm,-,N/A,,Clear,0,2013-08-16 07:15:00
1:35 AM,46.4,42.1,85,30.47,10.0,Calm,Calm,-,N/A,,Scattered Clouds,0,2013-08-16 07:35:00
1:55 AM,47.7,42.6,83,30.47,10.0,Calm,Calm,-,N/A,,Scattered Clouds,0,2013-08-16 07:55:00
2:15 AM,48.6,42.3,79,30.47,10.0,Calm,Calm,-,N/A,,Clear,0,2013-08-16 08:15:00
2:35 AM,46.6,43.3,88,30.47,10.0,Calm,Calm,-,N/A,,Scattered Clouds,0,2013-08-16 08:35:00
2:55 AM,48.0,43.3,84,30.47,10.0,Calm,Calm,-,N/A,,Mostly Cloudy,0,2013-08-16 08:55:00
3:15 AM,48.2,44.1,86,30.47,10.0,Calm,Calm,-,N/A,,Mostly Cloudy,0,2013-08-16 09:15:00
3:35 AM,46.0,42.1,86,30.47,10.0,WNW,3.5,-,N/A,,Clear,300,2013-08-16 09:35:00
3:55 AM,45.5,40.6,83,30.45,10.0,Calm,Calm,-,N/A,,Clear,0,2013-08-16 09:55:00
4:15 AM,44.2,40.3,86,30.45,10.0,Calm,Calm,-,N/A,,Clear,0,2013-08-16 10:15:00
4:35 AM,43.9,40.1,87,30.45,10.0,Calm,Calm,-,N/A,,Clear,0,2013-08-16 10:35:00
4:55 AM,41.9,39.2,90,30.46,10.0,Calm,Calm,-,N/A,,Clear,0,2013-08-16 10:55:00
5:15 AM,40.6,38.7,93,30.47,10.0,Calm,Calm,-,N/A,,Clear,0,2013-08-16 11:15:00
5:35 AM,41.9,38.8,89,30.47,10.0,Calm,Calm,-,N/A,,Clear,0,2013-08-16 11:35:00
5:55 AM,40.8,38.1,90,30.47,10.0,Calm,Calm,-,N/A,,Clear,0,2013-08-16 11:55:00
6:15 AM,40.1,38.1,93,30.48,10.0,Calm,Calm,-,N/A,,Clear,0,2013-08-16 12:15:00
6:35 AM,38.5,36.5,93,30.48,10.0,Calm,Calm,-,N/A,,Clear,0,2013-08-16 12:35:00
6:55 AM,39.6,37.8,93,30.49,10.0,Calm,Calm,-,N/A,,Clear,0,2013-08-16 12:55:00
7:15 AM,41.9,39.6,91,30.49,10.0,Calm,Calm,-,N/A,,Clear,0,2013-08-16 13:15:00
7:35 AM,43.7,41.0,90,30.50,10.0,Calm,Calm,-,N/A,,Clear,0,2013-08-16 13:35:00
7:55 AM,47.1,42.1,83,30.50,10.0,Calm,Calm,-,N/A,,Clear,0,2013-08-16 13:55:00
8:15 AM,49.6,43.2,78,30.50,10.0,Calm,Calm,-,N/A,,Clear,0,2013-08-16 14:15:00
8:35 AM,51.6,43.5,74,30.50,10.0,Calm,Calm,-,N/A,,Clear,0,2013-08-16 14:35:00
8:55 AM,54.0,44.8,71,30.50,10.0,Calm,Calm,-,N/A,,Clear,0,2013-08-16 14:55:00
9:15 AM,55.6,43.9,65,30.49,10.0,Calm,Calm,-,N/A,,Clear,0,2013-08-16 15:15:00
9:35 AM,59.2,45.3,60,30.49,10.0,Calm,Calm,-,N/A,,Clear,0,2013-08-16 15:35:00
9:55 AM,63.0,45.5,53,30.49,10.0,Calm,Calm,-,N/A,,Clear,0,2013-08-16 15:55:00
10:15 AM,65.1,46.4,51,30.49,10.0,Calm,Calm,-,N/A,,Clear,0,2013-08-16 16:15:00
10:35 AM,68.2,45.0,43,30.49,10.0,Calm,Calm,-,N/A,,Clear,0,2013-08-16 16:35:00
10:55 AM,68.7,45.1,43,30.48,10.0,Calm,Calm,-,N/A,,Clear,0,2013-08-16 16:55:00
11:15 AM,71.1,38.5,31,30.48,10.0,Calm,Calm,-,N/A,,Clear,0,2013-08-16 17:15:00
11:35 AM,73.0,33.3,23,30.48,10.0,NE,5.8,-,N/A,,Clear,40,2013-08-16 17:35:00
11:55 AM,73.4,36.3,26,30.48,10.0,North,3.5,-,N/A,,Clear,360,2013-08-16 17:55:00
12:15 PM,74.5,34.0,23,30.47,10.0,Calm,Calm,-,N/A,,Clear,0,2013-08-16 18:15:00
12:35 PM,72.9,40.1,31,30.47,10.0,West,16.1,21.9,N/A,,Mostly Cloudy,270,2013-08-16 18:35:00
12:55 PM,68.4,42.6,39,30.47,10.0,WSW,13.8,-,N/A,,Scattered Clouds,250,2013-08-16 18:55:00
1:15 PM,69.1,38.1,32,30.46,10.0,SW,11.5,-,N/A,,Scattered Clouds,230,2013-08-16 19:15:00
1:35 PM,73.0,40.5,31,30.46,10.0,West,11.5,-,N/A,,Scattered Clouds,260,2013-08-16 19:35:00
1:55 PM,73.9,37.6,27,30.45,10.0,WSW,15.0,18.4,N/A,,Clear,240,2013-08-16 19:55:00
2:15 PM,74.7,37.9,26,30.44,10.0,WSW,10.4,-,N/A,,Clear,250,2013-08-16 20:15:00
2:35 PM,75.9,36.1,24,30.44,10.0,SW,12.7,-,N/A,,Clear,220,2013-08-16 20:35:00
2:55 PM,76.5,34.2,21,30.43,10.0,SSW,9.2,-,N/A,,Clear,200,2013-08-16 20:55:00
3:15 PM,76.8,32.0,19,30.43,10.0,ESE,6.9,-,N/A,,Scattered Clouds,120,2013-08-16 21:15:00
3:35 PM,72.0,38.7,30,30.44,10.0,East,6.9,-,N/A,,Mostly Cloudy,90,2013-08-16 21:35:00
3:55 PM,69.4,39.4,33,30.44,10.0,East,8.1,18.4,N/A,,Scattered Clouds,100,2013-08-16 21:55:00
4:15 PM,69.8,39.9,34,30.45,10.0,ESE,8.1,-,N/A,,Scattered Clouds,120,2013-08-16 22:15:00
4:35 PM,70.0,40.5,34,30.43,10.0,East,11.5,16.1,N/A,,Mostly Cloudy,100,2013-08-16 22:35:00
4:55 PM,74.1,38.1,27,30.43,10.0,ESE,8.1,-,N/A,,Scattered Clouds,110,2013-08-16 22:55:00
5:15 PM,74.1,36.7,26,30.43,10.0,South,3.5,-,N/A,,Scattered Clouds,180,2013-08-16 23:15:00
5:35 PM,74.3,37.4,26,30.43,10.0,SE,3.5,-,N/A,,Clear,140,2013-08-16 23:35:00
5:55 PM,72.7,39.4,30,30.43,10.0,Calm,Calm,-,N/A,,Scattered Clouds,0,2013-08-16 23:55:00
6:15 PM,73.6,36.0,25,30.43,10.0,Calm,Calm,-,N/A,,Scattered Clouds,0,2013-08-17 00:15:00
6:35 PM,70.3,37.8,30,30.44,10.0,East,12.7,-,N/A,,Mostly Cloudy,90,2013-08-17 00:35:00
6:55 PM,68.9,37.0,31,30.44,10.0,East,10.4,18.4,N/A,,Overcast,90,2013-08-17 00:55:00
7:15 PM,66.6,41.9,41,30.45,10.0,South,6.9,-,N/A,Rain,Light Rain,170,2013-08-17 01:15:00
7:35 PM,66.2,42.8,43,30.45,10.0,SSE,9.2,-,N/A,,Clear,150,2013-08-17 01:35:00
7:55 PM,64.0,43.3,47,30.46,10.0,South,4.6,-,N/A,,Clear,180,2013-08-17 01:55:00
8:15 PM,63.3,42.8,47,30.47,10.0,South,4.6,-,N/A,,Clear,180,2013-08-17 02:15:00
8:35 PM,62.6,42.8,48,30.47,10.0,SSE,6.9,-,N/A,,Clear,160,2013-08-17 02:35:00
8:55 PM,56.3,45.1,66,30.49,10.0,North,3.5,-,N/A,,Clear,360,2013-08-17 02:55:00
9:15 PM,59.9,42.4,52,30.50,10.0,Calm,Calm,-,N/A,,Clear,0,2013-08-17 03:15:00
9:35 PM,58.8,44.6,59,30.50,10.0,NNW,3.5,-,N/A,,Scattered Clouds,330,2013-08-17 03:35:00
9:55 PM,62.2,40.5,45,30.51,10.0,Calm,Calm,-,N/A,,Mostly Cloudy,0,2013-08-17 03:55:00
10:15 PM,62.4,40.3,44,30.50,10.0,SSE,5.8,-,N/A,,Mostly Cloudy,160,2013-08-17 04:15:00
10:35 PM,59.7,42.3,52,30.51,10.0,NNE,6.9,-,N/A,,Scattered Clouds,30,2013-08-17 04:35:00
10:55 PM,63.1,36.3,37,30.52,10.0,East,4.6,-,N/A,,Scattered Clouds,90,2013-08-17 04:55:00
11:15 PM,60.8,42.4,51,30.53,10.0,East,3.5,-,N/A,,Overcast,90,2013-08-17 05:15:00
11:35 PM,56.5,43.2,61,30.52,10.0,Calm,Calm,-,N/A,,Scattered Clouds,0,2013-08-17 05:35:00
11:55 PM,52.0,43.5,73,30.52,10.0,Calm,Calm,-,N/A,,Clear,0,2013-08-17 05:55:00